Weather History for Moultrie, GA

Change the Weather History Date:

Thursday, August 9, 2012

  Actual Average (KMUL) Record (KMUL)
Temperature  
Mean Temperature 81 °F -  
Max Temperature 89 °F 92 °F 100 °F (1941)
Min Temperature 73 °F 70 °F 61 °F (1950)
Cooling Degree Days 16    
Growing Degree Days 31 (Base 50)    
Moisture  
Dew Point 75 °F    
Average Humidity 87    
Maximum Humidity 100    
Minimum Humidity 59    
Precipitation  
Precipitation 0.00 in - - ()
Sea Level Pressure  
Sea Level Pressure 29.99 in    
Wind  
Wind Speed 2 mph (SW)    
Max Wind Speed 13 mph    
Max Gust Speed 25 mph    
Visibility 10 miles    
Events Rain , Thunderstorm    
Averages and records for this station are not official NWS values.
T = Trace of Precipitation, MM = Missing Value Source: NWS Daily Summary

Daily Weather History Graph

Daily Weather History Graph

Search for Another Location

Airport:

Trip Planner

Search our weather history database for the weather conditions in past years. The results will help you decide how hot, cold, wet, or windy it might be!

Date:

Astronomy

Aug. 09, 2012 Rise Set
Actual Time 6:57 AM EDT 8:23 PM EDT
Civil Twilight 6:31 AM EDT 8:48 PM EDT
Nautical Twilight 6:01 AM EDT 9:19 PM EDT
Astronomical Twilight 5:28 AM EDT 9:51 PM EDT
Moon 12:11 AM EDT (8/9) 2:03 PM EDT (8/9)
Length of Visible Light 14h 17m
Length of Day
13h 25m
Waning Gibbous, 51% of the Moon is Illuminated
Aug 9
Waning Gibbous
Aug 9
Last Quarter
Aug 17
New
Aug 24
First Quarter
Aug 31
Full

Hourly Weather History & Observations

Time (EDT) Temp. Heat Index Dew Point Humidity Pressure Visibility Wind Dir Wind Speed Gust Speed Precip Events Conditions
12:15 AM 77.0 °F - 73.4 °F 89% 30.02 in 10.0 mi Calm Calm - N/A   Clear
12:35 AM 77.0 °F - 73.4 °F 89% 30.02 in 10.0 mi SW 3.5 mph - N/A   Scattered Clouds
12:55 AM 77.0 °F - 73.4 °F 89% 30.02 in 10.0 mi SW 3.5 mph - N/A   Clear
1:15 AM 77.0 °F - 73.4 °F 89% 30.02 in 10.0 mi Calm Calm - N/A   Clear
1:35 AM 77.0 °F - 73.4 °F 89% 30.01 in 10.0 mi Calm Calm - N/A   Scattered Clouds
1:55 AM 77.0 °F - 71.6 °F 83% 30.00 in 10.0 mi Calm Calm - N/A   Scattered Clouds
2:15 AM 77.0 °F - 73.4 °F 89% 30.00 in 10.0 mi Calm Calm - N/A   Clear
2:35 AM 75.2 °F - 73.4 °F 94% 30.00 in 10.0 mi Calm Calm - N/A   Clear
2:55 AM 75.2 °F - 71.6 °F 89% 30.00 in 10.0 mi Calm Calm - N/A   Clear
3:15 AM 75.2 °F - 71.6 °F 89% 30.00 in 10.0 mi Calm Calm - N/A   Clear
3:35 AM 75.2 °F - 71.6 °F 89% 30.00 in 10.0 mi West 3.5 mph - N/A   Clear
3:55 AM 75.2 °F - 71.6 °F 89% 30.00 in 10.0 mi Calm Calm - N/A   Clear
4:15 AM 75.2 °F - 71.6 °F 89% 30.00 in 10.0 mi Calm Calm - N/A   Clear
4:55 AM 73.4 °F - 71.6 °F 94% 30.00 in 10.0 mi Calm Calm - N/A   Clear
5:15 AM 73.4 °F - 71.6 °F 94% 30.00 in 10.0 mi Calm Calm - N/A   Clear
5:35 AM 73.4 °F - 71.6 °F 94% 30.01 in 10.0 mi Calm Calm - N/A   Clear
5:55 AM 73.4 °F - 71.6 °F 94% 30.01 in 7.0 mi Calm Calm - N/A   Clear
6:15 AM 73.4 °F - 71.6 °F 94% 30.02 in 7.0 mi Calm Calm - N/A   Clear
6:35 AM 73.4 °F - 71.6 °F 94% 30.02 in 7.0 mi Calm Calm - N/A   Scattered Clouds
6:55 AM 73.4 °F - 71.6 °F 94% 30.02 in 7.0 mi Calm Calm - N/A   Clear
7:15 AM 73.4 °F - 71.6 °F 94% 30.02 in 7.0 mi Calm Calm - N/A   Scattered Clouds
7:35 AM 73.4 °F - 73.4 °F 100% 30.01 in 7.0 mi Calm Calm - N/A   Scattered Clouds
7:55 AM 75.2 °F - 73.4 °F 94% 30.02 in 10.0 mi Calm Calm - N/A   Clear
8:15 AM 77.0 °F - 73.4 °F 89% 30.02 in 10.0 mi Calm Calm - N/A   Clear
8:35 AM 77.0 °F - 75.2 °F 94% 30.03 in 10.0 mi Calm Calm - N/A   Clear
8:55 AM 78.8 °F - 77.0 °F 94% 30.03 in 10.0 mi Calm Calm - N/A   Clear
9:15 AM 80.6 °F 87.1 °F 77.0 °F 89% 30.03 in 10.0 mi Calm Calm - N/A   Clear
9:35 AM 82.4 °F 92.4 °F 78.8 °F 89% 30.03 in 10.0 mi WSW 6.9 mph - N/A   Clear
9:55 AM 82.4 °F 92.4 °F 78.8 °F 89% 30.03 in 10.0 mi West 4.6 mph - N/A   Clear
10:15 AM 84.2 °F 96.1 °F 78.8 °F 84% 30.03 in 10.0 mi WNW 4.6 mph - N/A   Scattered Clouds
10:35 AM 84.2 °F 94.1 °F 77.0 °F 79% 30.03 in 10.0 mi West 4.6 mph - N/A   Mostly Cloudy
10:55 AM 86.0 °F 96.9 °F 77.0 °F 74% 30.02 in 10.0 mi WNW 3.5 mph - N/A   Mostly Cloudy
11:15 AM 84.2 °F 94.1 °F 77.0 °F 79% 30.02 in 10.0 mi West 3.5 mph - N/A   Mostly Cloudy
11:35 AM 87.8 °F 97.6 °F 75.2 °F 66% 30.01 in 10.0 mi Calm Calm - N/A   Scattered Clouds
11:55 AM 86.0 °F 96.9 °F 77.0 °F 74% 30.00 in 10.0 mi Calm Calm - N/A   Scattered Clouds
12:15 PM 86.0 °F 95.1 °F 75.2 °F 70% 30.00 in 10.0 mi Calm Calm - N/A Rain Rain
12:35 PM 86.0 °F 95.1 °F 75.2 °F 70% 29.99 in 10.0 mi Calm Calm - N/A   Mostly Cloudy
12:55 PM 86.0 °F 95.1 °F 75.2 °F 70% 29.98 in 10.0 mi Calm Calm - N/A   Scattered Clouds
1:15 PM 87.8 °F 99.7 °F 77.0 °F 70% 29.97 in 10.0 mi Calm Calm - N/A   Scattered Clouds
1:35 PM 89.6 °F 99.8 °F 75.2 °F 62% 29.97 in 10.0 mi SW 6.9 mph - N/A Thunderstorm Scattered Clouds
1:55 PM 89.6 °F 98.2 °F 73.4 °F 59% 29.97 in 10.0 mi SW 12.7 mph 24.2 mph N/A Thunderstorm Thunderstorm
2:15 PM 77.0 °F - 71.6 °F 83% 29.99 in 2.5 mi SSW 10.4 mph 25.3 mph N/A Rain , Thunderstorm Heavy Thunderstorms and Rain
2:35 PM 77.0 °F - 71.6 °F 83% 29.98 in 10.0 mi West 3.5 mph - N/A Rain , Thunderstorm Light Thunderstorms and Rain
2:55 PM 77.0 °F - 73.4 °F 89% 29.99 in 1.8 mi SW 4.6 mph - N/A Rain , Thunderstorm Light Thunderstorms and Rain
3:15 PM 77.0 °F - 73.4 °F 89% 29.99 in 10.0 mi West 5.8 mph - N/A Rain , Thunderstorm Light Thunderstorms and Rain
3:35 PM 77.0 °F - 73.4 °F 89% 29.99 in 10.0 mi West 4.6 mph - N/A   Scattered Clouds
3:55 PM 77.0 °F - 73.4 °F 89% 29.97 in 10.0 mi West 4.6 mph - N/A Rain Rain
4:15 PM 77.0 °F - 73.4 °F 89% 29.95 in 10.0 mi WSW 6.9 mph - N/A Thunderstorm Unknown
4:35 PM 77.0 °F - 73.4 °F 89% 29.94 in 10.0 mi WSW 5.8 mph - N/A Rain Light Rain
4:55 PM 77.0 °F - 75.2 °F 94% 29.94 in 10.0 mi SW 3.5 mph - N/A   Clear
5:15 PM 77.0 °F - 75.2 °F 94% 29.94 in 10.0 mi SSW 4.6 mph - N/A   Clear
5:35 PM 78.8 °F - 75.2 °F 89% 29.93 in 10.0 mi SSW 3.5 mph - N/A   Clear
5:55 PM 80.6 °F 86.2 °F 75.2 °F 84% 29.92 in 10.0 mi SW 5.8 mph - N/A   Clear
6:15 PM 82.4 °F 90.9 °F 77.0 °F 84% 29.91 in 10.0 mi SSW 9.2 mph - N/A   Clear
6:35 PM 84.2 °F 94.1 °F 77.0 °F 79% 29.91 in 10.0 mi SW 9.2 mph - N/A   Clear
6:55 PM 82.4 °F 89.5 °F 75.2 °F 79% 29.92 in 10.0 mi SW 10.4 mph - N/A   Clear
7:15 PM 82.4 °F 88.2 °F 73.4 °F 74% 29.94 in 10.0 mi SW 8.1 mph - N/A   Scattered Clouds
7:35 PM 82.4 °F 89.5 °F 75.2 °F 79% 29.94 in 10.0 mi SW 5.8 mph - N/A   Clear
7:55 PM 82.4 °F 89.5 °F 75.2 °F 79% 29.95 in 10.0 mi SW 3.5 mph - N/A   Clear
8:15 PM 80.6 °F 87.1 °F 77.0 °F 89% 29.95 in 10.0 mi SW 3.5 mph - N/A   Scattered Clouds
8:35 PM 80.6 °F 87.1 °F 77.0 °F 89% 29.96 in 10.0 mi SSW 6.9 mph - N/A   Scattered Clouds
8:55 PM 80.6 °F 87.1 °F 77.0 °F 89% 29.96 in 10.0 mi SSW 4.6 mph - N/A   Scattered Clouds
9:15 PM 78.8 °F - 77.0 °F 94% 29.96 in 10.0 mi SW 3.5 mph - N/A   Clear
9:35 PM 78.8 °F - 77.0 °F 94% 29.96 in 10.0 mi Calm Calm - N/A   Clear
9:55 PM 78.8 °F - 77.0 °F 94% 29.97 in 10.0 mi SW 3.5 mph - N/A   Clear
10:15 PM 78.8 °F - 77.0 °F 94% 29.97 in 10.0 mi SW 3.5 mph - N/A   Clear
10:35 PM 78.8 °F - 77.0 °F 94% 29.96 in 10.0 mi SSW 3.5 mph - N/A   Clear
10:55 PM 78.8 °F - 77.0 °F 94% 29.97 in 10.0 mi SSW 4.6 mph - N/A   Clear
11:15 PM 78.8 °F - 77.0 °F 94% 29.97 in 10.0 mi SW 3.5 mph - N/A   Clear
11:35 PM 78.8 °F - 77.0 °F 94% 29.96 in 10.0 mi SW 3.5 mph - N/A   Scattered Clouds
11:55 PM 78.8 °F - 77.0 °F 94% 29.95 in 10.0 mi SSW 4.6 mph - N/A   Clear